Weather in Gudauta

Abkhazia     43°06′04″N   40°38′03″E
temp.,
°C
wind,
m/s
gust,
m/s
humid.,
%
clouds,
%
prec.,
mm/h
press.,
hPa
HPBL,
m
6 may, thu
thu600:00+14ene23800 0.0 101492
03:00+14ene33735 0.0 101365
06:00+15n3368100 0.0 101255
09:00+15se22685 0.0 101131
12:00+15wnw55735 0.0 1012110
15:00+16nw45747 0.0 101063
18:00+18nw4470100 0.0 101026
21:00+16wnw4675100 0.0 101263
7 may, fri
fri700:00+16nnw147588 0.0 101451
03:00+15e568798 0.0 1017210
06:00+14e678190 0.0 1018247
09:00+14se568923 0.0 1019286
12:00+14sse348932 0.0 1019120
15:00+14wsw118632 0.0 101852
18:00+15nne11785 0.0 101835
21:00+15e22774 0.0 101915
8 may, sat
sat800:00+15e33794 0.0 101858
03:00+15e34805 0.0 101778
06:00+15ene337324 0.0 101542
09:00+16se017430 0.0 101514
12:00+18nw3366100 0.0 101344
15:00+19wnw3367100 0.0 101225
18:00+21nne226049 0.0 101111
21:00+19ne44635 0.0 101019
9 may, sun
sun900:00+18ene556183 0.0 101027
03:00+17e4464100 0.0 100826
06:00+17ese2271100 0.0 100719
09:00+16nnw3586100 0.5 1014123
12:00+14wsw5797100 9.4 1017361
15:00+13wnw121489100 18.9 1020701
18:00+12wnw101081100 1.7 1023822
21:00+12wnw777283 2.6 1026990
10 may, mon
mon1000:00+12wnw556953 0.1 1025955
03:00+12nw44704 0.1 1025698
06:00+11nw22723 0.0 1025506
09:00+11wnw116611 0.3 1025315
12:00+12wsw23614 0.1 1025591
15:00+14w34550 0.3 1025908
18:00+14w22510 0.1 10241337
21:00+13nne22580 0.1 1024592